Home > Weather > Caledon > Past weeks

Flag for Canada Weather for the Past 2 Weeks in Caledon, Ontario, Canada

Now
14 °F

Passing clouds.


Feels Like: 0 °F
Forecast: 7 / 23 °F
Wind: 12 mph from Southwest

Location: Borden

Current Time: Feb 12, 2016 at 5:32:22 AM

Latest Report: Feb 12, 2016 at 5:00 AM


Visibility: 9 mi

Pressure: 30.03 "Hg

Humidity: 79%

Dew point: 9 °F

Location of CaledonLocation

Historic Weather in Caledon — Graph

°F

Caledon Temperature Yesterday

Maximum temperature yesterday: 10 °F (at 4:04 PM)
Minimum temperature yesterday: -8 °F (at 8:00 PM)
Average temperature yesterday: 3 °F

High & Low Weather Summary for the Past Weeks

 TemperatureHumidityPressure
High57 °F (Feb 3, 3:00 PM)100% (Jan 31, 6:00 PM)30.35 "Hg (Jan 31, 6:00 PM)
Low-8 °F (Feb 11, 8:00 PM)48% (Feb 5, 2:00 PM)29.40 "Hg (Jan 31, 9:57 PM)
Average29 °F80%29.84 "Hg
* Reported Jan 28 4:00 AM — Feb 12 4:00 AM, Caledon, Weather by CustomWeather, © 2016

Note: Actual official high and low records may vary slightly from our data, if they occured in-between our weather recording intervals... More about our weather records

Advertising

Caledon Weather History for the Previous 24 Hours

 ConditionsComfort  
Time TempWeatherWind HumidityBarometerVisibility
4:00 AM
Fri, Feb 12
14 °FOvercast.12 mph79%30.03 "Hg9 mi
3:00 AM10 °FOvercast.8 mph79%30.09 "Hg8 mi
2:49 AM9 °FOvercast.8 mph78%30.04 "Hg9 mi
2:00 AM3 °FOvercast.5 mph78%30.11 "Hg9 mi
1:53 AM3 °FOvercast.3 mph78%30.05 "Hg9 mi
1:00 AM3 °FPassing clouds.7 mph78%30.13 "Hg9 mi
12:00 AM9 °FOvercast.7 mph78%30.15 "Hg9 mi
11:00 PM
Thu, Feb 11
7 °FOvercast.10 mph78%30.17 "Hg9 mi
10:00 PM5 °FOvercast.3 mph78%30.19 "Hg9 mi
9:00 PM-4 °FPassing clouds.8 mph71%30.21 "Hg9 mi
8:00 PM-8 °FClear.6 mph77%30.22 "Hg9 mi
7:00 PM-2 °FClear.3 mph71%30.21 "Hg9 mi
6:00 PM5 °FClear.8 mph60%30.20 "Hg9 mi
5:00 PM9 °FPassing clouds.9 mph56%30.18 "Hg9 mi
4:04 PM10 °FOvercast.10 mph56%30.10 "Hg9 mi
3:04 PM9 °FLight snow. Overcast.13 mph72%30.08 "Hg3 mi
2:03 PM9 °FLight snow. Ice fog.14 mph72%30.06 "Hg1 mi
1:00 PM7 °FLight snow. Ice fog.5 mph78%30.11 "Hg0 mi
12:00 PM3 °FLight snow. Ice fog.2 mph72%30.10 "Hg1 mi
11:00 AM1 °FLight snow. Partly sunny.7 mph65%30.09 "Hg1 mi
10:00 AM0 °FIce fog.6 mph65%30.08 "Hg1 mi
9:00 AM-2 °FLight snow. Ice fog.5 mph84%30.06 "Hg1 mi
8:00 AM-2 °FLight snow. Ice fog.6 mph84%30.03 "Hg1 mi
7:04 AM-2 °FLight snow. Ice fog.3 mph92%29.95 "Hg1 mi
6:00 AM0 °FLight snow. Ice fog.5 mph84%29.98 "Hg1 mi
5:04 AM0 °FLight snow. Ice fog.13 mph92%29.90 "Hg1 mi
Weather by CustomWeather, © 2016

See weather overviewHow to use our weather pages